• In Österreich
  • Länderverzeichnis
  • Für 7 Tage
  • Wassertemperatur
  • Satellitenkarten
  • Wetterkarte
  • News
  • Widgets
  • user-avatar
    Anmelden

    Stündliche Wetter Wlora

    Heute, 23 Februar, Freitag

    Zeit Temperatur Niederschläge Wind Luftdruck Luftfeuchtigkeit
    00:00 +9°C° 0 mm 7 m/S 755 mmHg 82%
    01:00 +9°C° 0 mm 7 m/S 755 mmHg 81%
    02:00 +9°C° 0 mm 7 m/S 755 mmHg 80%
    03:00 +9°C° 0 mm 7 m/S 755 mmHg 79%
    04:00 +9°C° 0 mm 7 m/S 755 mmHg 78%
    05:00 +9°C° 0 mm 6 m/S 755 mmHg 78%
    06:00 +9°C° 0 mm 6 m/S 755 mmHg 78%
    07:00 +9°C° 0 mm 6 m/S 755 mmHg 78%
    08:00 +10°C° 0 mm 6 m/S 755 mmHg 72%
    09:00 +13°C° 0 mm 6 m/S 755 mmHg 67%
    10:00 +15°C° 0 mm 6 m/S 755 mmHg 61%
    11:00 +16°C° 0 mm 6 m/S 755 mmHg 56%
    12:00 +17°C° 0 mm 5 m/S 755 mmHg 52%
    13:00 +17°C° 0 mm 5 m/S 755 mmHg 48%
    14:00 +17°C° 0 mm 5 m/S 755 mmHg 50%
    15:00 +17°C° 0 mm 5 m/S 754 mmHg 53%
    16:00 +17°C° 0 mm 5 m/S 754 mmHg 55%
    17:00 +15°C° 0 mm 5 m/S 754 mmHg 60%
    18:00 +14°C° 0 mm 5 m/S 754 mmHg 64%
    19:00 +13°C° 0 mm 5 m/S 754 mmHg 68%
    20:00 +12°C° 0 mm 5 m/S 753 mmHg 70%
    21:00 +11°C° 0 mm 6 m/S 753 mmHg 72%
    22:00 +10°C° 0 mm 6 m/S 753 mmHg 75%
    23:00 +10°C° 0 mm 7 m/S 753 mmHg 75%

    Morgen, 24 Februar, Samstag

    Zeit Temperatur Niederschläge Wind Luftdruck Luftfeuchtigkeit
    00:00 +10°C° 0 mm 7 m/S 752 mmHg 75%
    01:00 +10°C° 0 mm 8 m/S 752 mmHg 75%
    02:00 +10°C° 0,5 mm 8 m/S 752 mmHg 75%
    03:00 +10°C° 0,5 mm 7 m/S 752 mmHg 76%
    04:00 +10°C° 0,5 mm 7 m/S 752 mmHg 76%
    05:00 +9°C° 0,6 mm 7 m/S 752 mmHg 79%
    06:00 +9°C° 0,6 mm 7 m/S 752 mmHg 83%
    07:00 +9°C° 0,6 mm 7 m/S 752 mmHg 86%
    08:00 +10°C° 0,4 mm 6 m/S 753 mmHg 83%
    09:00 +11°C° 0,4 mm 6 m/S 753 mmHg 79%
    10:00 +12°C° 0,4 mm 5 m/S 754 mmHg 75%
    11:00 +13°C° 0,5 mm 5 m/S 754 mmHg 72%
    12:00 +14°C° 0,5 mm 4 m/S 754 mmHg 68%
    13:00 +14°C° 0,5 mm 4 m/S 754 mmHg 64%
    14:00 +14°C° 0,6 mm 4 m/S 754 mmHg 68%
    15:00 +13°C° 0,6 mm 4 m/S 754 mmHg 72%
    16:00 +13°C° 0,6 mm 3 m/S 753 mmHg 76%
    17:00 +12°C° 0,2 mm 3 m/S 754 mmHg 80%
    18:00 +12°C° 0,2 mm 2 m/S 754 mmHg 85%
    19:00 +12°C° 0,2 mm 2 m/S 754 mmHg 89%
    20:00 +12°C° 0,4 mm 2 m/S 755 mmHg 90%
    21:00 +10°C° 0,4 mm 3 m/S 755 mmHg 90%
    22:00 +10°C° 0,4 mm 3 m/S 755 mmHg 91%
    23:00 +10°C° 0,4 mm 3 m/S 755 mmHg 91%

    übermorgen, 25 Februar, Sonntag

    Zeit Temperatur Niederschläge Wind Luftdruck Luftfeuchtigkeit
    00:00 +10°C° 0,4 mm 3 m/S 755 mmHg 91%
    01:00 +10°C° 0,4 mm 3 m/S 755 mmHg 91%
    02:00 +10°C° 0,2 mm 3 m/S 755 mmHg 91%
    03:00 +10°C° 0,2 mm 2 m/S 755 mmHg 90%
    04:00 +10°C° 0,2 mm 2 m/S 755 mmHg 90%
    05:00 +10°C° 0,1 mm 2 m/S 755 mmHg 90%
    06:00 +10°C° 0,1 mm 2 m/S 755 mmHg 90%
    07:00 +9°C° 0,1 mm 3 m/S 755 mmHg 90%
    08:00 +10°C° 0,1 mm 3 m/S 755 mmHg 83%
    09:00 +11°C° 0,1 mm 4 m/S 756 mmHg 76%
    10:00 +13°C° 0,1 mm 4 m/S 756 mmHg 69%
    11:00 +13°C° 0,1 mm 5 m/S 755 mmHg 67%
    12:00 +13°C° 0,1 mm 5 m/S 755 mmHg 66%
    13:00 +13°C° 0,1 mm 5 m/S 755 mmHg 64%
    14:00 +12°C° 0,6 mm 5 m/S 754 mmHg 70%
    15:00 +12°C° 0,6 mm 5 m/S 754 mmHg 75%
    16:00 +10°C° 0,6 mm 6 m/S 754 mmHg 81%
    17:00 +10°C° 1,7 mm 5 m/S 754 mmHg 83%
    18:00 +9°C° 1,7 mm 5 m/S 753 mmHg 85%
    19:00 +9°C° 1,7 mm 5 m/S 753 mmHg 87%
    20:00 +9°C° 2,6 mm 5 m/S 753 mmHg 86%
    21:00 +9°C° 2,6 mm 6 m/S 752 mmHg 86%
    22:00 +9°C° 2,6 mm 6 m/S 752 mmHg 85%
    23:00 +8°C° 3,6 mm 7 m/S 751 mmHg 84%

    26 Februar, Montag

    Zeit Temperatur Niederschläge Wind Luftdruck Luftfeuchtigkeit
    00:00 +7°C° 3,6 mm 8 m/S 750 mmHg 83%
    01:00 +7°C° 3,6 mm 9 m/S 749 mmHg 82%
    02:00 +7°C° 6,2 mm 9 m/S 748 mmHg 80%
    03:00 +7°C° 6,2 mm 10 m/S 747 mmHg 79%
    04:00 +7°C° 6,2 mm 10 m/S 746 mmHg 77%
    05:00 +6°C° 2,3 mm 10 m/S 747 mmHg 80%
    06:00 +6°C° 2,3 mm 10 m/S 747 mmHg 82%
    07:00 +6°C° 2,3 mm 9 m/S 747 mmHg 84%
    08:00 +7°C° 1,7 mm 9 m/S 748 mmHg 80%
    09:00 +8°C° 1,7 mm 9 m/S 748 mmHg 75%
    10:00 +10°C° 1,7 mm 8 m/S 749 mmHg 71%
    11:00 +9°C° 1 mm 8 m/S 749 mmHg 76%
    12:00 +8°C° 1 mm 7 m/S 749 mmHg 82%
    13:00 +7°C° 1 mm 6 m/S 749 mmHg 88%
    14:00 +7°C° 0,1 mm 6 m/S 750 mmHg 86%
    15:00 +7°C° 0,1 mm 5 m/S 750 mmHg 84%
    16:00 +7°C° 0,1 mm 4 m/S 750 mmHg 83%
    17:00 +8°C° 0,1 mm 3 m/S 751 mmHg 84%
    18:00 +7°C° 0,1 mm 2 m/S 751 mmHg 85%
    19:00 +8°C° 0,1 mm 1 m/S 751 mmHg 86%
    20:00 +8°C° 0,1 mm 1 m/S 751 mmHg 87%
    21:00 +8°C° 0,1 mm 1 m/S 751 mmHg 88%
    22:00 +8°C° 0,1 mm 1 m/S 751 mmHg 89%
    23:00 +7°C° 0,4 mm 3 m/S 751 mmHg 90%

    27 Februar, Dienstag

    Zeit Temperatur Niederschläge Wind Luftdruck Luftfeuchtigkeit
    00:00 +5°C° 0,4 mm 5 m/S 751 mmHg 91%
    01:00 +4°C° 0,4 mm 6 m/S 751 mmHg 92%
    02:00 +4°C° 0,2 mm 6 m/S 751 mmHg 91%
    03:00 +4°C° 0,2 mm 6 m/S 751 mmHg 89%
    04:00 +4°C° 0,2 mm 6 m/S 752 mmHg 87%
    05:00 +4°C° 0,1 mm 6 m/S 752 mmHg 85%
    06:00 +4°C° 0,1 mm 6 m/S 752 mmHg 84%
    07:00 +5°C° 0,1 mm 5 m/S 753 mmHg 83%
    08:00 +6°C° 0,1 mm 5 m/S 753 mmHg 79%
    09:00 +6°C° 0,1 mm 5 m/S 753 mmHg 75%
    10:00 +7°C° 0,1 mm 5 m/S 754 mmHg 71%
    11:00 +7°C° 0 mm 4 m/S 754 mmHg 69%
    12:00 +8°C° 0 mm 4 m/S 754 mmHg 66%
    13:00 +9°C° 0 mm 3 m/S 754 mmHg 64%
    14:00 +8°C° 0 mm 4 m/S 754 mmHg 65%
    15:00 +8°C° 0 mm 4 m/S 754 mmHg 67%
    16:00 +7°C° 0 mm 4 m/S 754 mmHg 68%
    17:00 +7°C° 0 mm 4 m/S 754 mmHg 73%
    18:00 +6°C° 0 mm 4 m/S 755 mmHg 77%
    19:00 +5°C° 0 mm 5 m/S 755 mmHg 81%
    20:00 +5°C° 0 mm 5 m/S 755 mmHg 82%
    21:00 +5°C° 0 mm 5 m/S 756 mmHg 82%
    22:00 +3°C° 0 mm 5 m/S 756 mmHg 82%
    23:00 +3°C° 0 mm 5 m/S 756 mmHg 81%

    28 Februar, Mittwoch

    Zeit Temperatur Niederschläge Wind Luftdruck Luftfeuchtigkeit
    00:00 +3°C° 0 mm 5 m/S 756 mmHg 80%
    01:00 +3°C° 0 mm 6 m/S 757 mmHg 79%
    02:00 +2°C° 0 mm 6 m/S 757 mmHg 78%
    03:00 +2°C° 0 mm 6 m/S 757 mmHg 77%
    04:00 +2°C° 0 mm 6 m/S 757 mmHg 76%
    05:00 +2°C° 0 mm 6 m/S 758 mmHg 75%
    06:00 +2°C° 0 mm 5 m/S 758 mmHg 74%
    07:00 +2°C° 0 mm 5 m/S 759 mmHg 73%
    08:00 +3°C° 0 mm 5 m/S 759 mmHg 65%
    09:00 +5°C° 0 mm 5 m/S 759 mmHg 57%
    10:00 +6°C° 0 mm 4 m/S 759 mmHg 49%
    11:00 +7°C° 0 mm 4 m/S 760 mmHg 48%
    12:00 +8°C° 0 mm 4 m/S 760 mmHg 46%
    13:00 +8°C° 0 mm 4 m/S 760 mmHg 44%
    14:00 +8°C° 0 mm 4 m/S 760 mmHg 45%
    15:00 +9°C° 0 mm 3 m/S 760 mmHg 45%
    16:00 +9°C° 0 mm 3 m/S 760 mmHg 45%
    17:00 +8°C° 0 mm 2 m/S 760 mmHg 49%
    18:00 +7°C° 0 mm 2 m/S 761 mmHg 54%
    19:00 +7°C° 0 mm 1 m/S 761 mmHg 58%
    20:00 +7°C° 0 mm 1 m/S 761 mmHg 57%
    21:00 +6°C° 0 mm 2 m/S 762 mmHg 57%
    22:00 +7°C° 0 mm 2 m/S 762 mmHg 57%
    23:00 +5°C° 0 mm 3 m/S 762 mmHg 57%
    Mehr zeigen